Location: Twentynine Palms Airport
(34.1316°N, 115.9458°W)
Time: 14:25:03
(UTC-07:00)

Amateur Radio Satellites - All Passes

Search period start: 31 July 2015 13:55
Search period end: 01 August 2015 13:55
Location: Twentynine Palms Airport, 34.1316°N, 115.9458°W

Satellite Date Start Highest point End Downlink Frequencies (MHz)
Time Altitude Azimuth
Cosmos 2491 31 Jul 13:56:07 14:03:44 31° 288° (WNW) 14:11:06 435.465 / 435.565
Cosmos 2504 31 Jul 14:00:07 14:08:31 65° 81° (E) 14:17:04 435.465 / 435.565
JAS-2 31 Jul 14:08:08 14:12:36 23° 64° (ENE) 14:17:41 435.910
SWISSCUBE 31 Jul 14:09:11 14:13:48 49° 100° (E) 14:18:24 437.505
ITAMSAT 1 31 Jul 14:17:45 14:22:55 67° 75° (ENE) 14:28:07 435.822/435.867
ITUPSAT 1 31 Jul 14:29:41 14:34:28 74° 101° (E) 14:39:14 437.325
Oscar 19 31 Jul 14:39:37 14:43:10 18° 268° (W) 14:46:32 437.125/150
CUSAT 1 31 Jul 14:50:29 14:54:21 30° 80° (E) 14:59:21 437.405
KKS-1 31 Jul 14:53:16 14:56:25 19° 94° (E) 14:59:44 437.445
HORYU 2 31 Jul 14:54:28 14:57:18 17° 69° (ENE) 15:00:17 437.375
AO-7 31 Jul 15:03:18 15:10:58 43° 66° (ENE) 15:18:45 29.400- 29.500
BEESAT 31 Jul 15:26:58 15:30:59 26° 289° (WNW) 15:34:51 436.000
Gurwin Techsat 1B 31 Jul 15:32:46 15:36:45 20° 267° (W) 15:40:33 435.225
SWISSCUBE 31 Jul 15:48:32 15:51:17 15° 293° (WNW) 15:53:49 437.505
JAS-2 31 Jul 15:51:32 15:57:13 50° 263° (W) 16:03:37 435.910
Cosmos 2504 31 Jul 15:53:44 16:00:10 23° 275° (W) 16:06:17 435.465 / 435.565
ITAMSAT 1 31 Jul 16:01:01 16:02:58 12° 270° (W) 16:04:32 435.822/435.867
STARS 31 Jul 16:03:28 16:07:54 77° 101° (E) 16:12:20 437.465
DANDE 31 Jul 16:07:46 16:11:41 60° 262° (W) 16:16:57 436.750
GONETS M04 31 Jul 16:12:14 16:18:30 22° 68° (ENE) 16:25:10
KKS-1 31 Jul 16:29:10 16:33:07 31° 288° (WNW) 16:37:00 437.445
HORYU 2 31 Jul 16:29:35 16:33:41 36° 262° (W) 16:37:46 437.375
CUSAT 1 31 Jul 16:33:15 16:36:51 22° 263° (W) 16:41:04 437.405
VERMONT LUNAR 31 Jul 16:46:25 16:47:50 13° 143° (SE) 16:49:20 437.305
AO-7 31 Jul 16:56:09 17:03:48 38° 262° (W) 17:11:21 29.400- 29.500
MOZHAYETS 4 31 Jul 17:14:50 17:19:29 90° 98° (E) 17:24:05
CUTE-I 31 Jul 17:21:05 17:25:10 23° 69° (ENE) 17:29:24 437.470
SO-50 31 Jul 17:26:01 17:28:39 15° 45° (NE) 17:31:27 436.795
Cubesat XI-IV 31 Jul 18:03:34 18:08:50 62° 74° (ENE) 18:14:09 437.490
GONETS M04 31 Jul 18:07:31 18:16:09 67° 267° (W) 18:24:46
Cosmos 2499 31 Jul 18:16:01 18:23:48 36° 74° (ENE) 18:31:49 435.465 / 435.565
VERMONT LUNAR 31 Jul 18:21:03 18:24:14 86° 161° (SSE) 18:27:26 437.305
PHONESAT 2.4 31 Jul 18:28:05 18:29:17 12° 141° (SE) 18:30:37 2401.200-2431.200
PCSat 31 Jul 18:36:12 18:41:31 55° 61° (ENE) 18:46:49 145.827
PRISM 31 Jul 18:52:08 18:54:06 14° 92° (E) 18:56:17 437.425
CUTE-I 31 Jul 19:00:05 19:05:03 37° 262° (W) 19:09:59 437.470
SO-50 31 Jul 19:04:51 19:09:47 70° 242° (WSW) 19:14:33 436.795
CUBESAT XI-V 31 Jul 19:07:24 19:12:00 69° 283° (WNW) 19:16:33 437.345
HO-68 31 Jul 19:12:24 19:17:22 22° 63° (ENE) 19:22:37 435.675
BRITE-PL 31 Jul 19:13:04 19:17:00 31° 74° (ENE) 19:20:47 437.365/2234.400
DOVE 4 31 Jul 19:20:20 19:21:22 11° 68° (ENE) 19:22:39 437.250
STRAND 1 31 Jul 19:24:34 19:29:28 46° 99° (E) 19:34:21 437.568
GOMX 1 31 Jul 19:26:56 19:30:22 24° 72° (ENE) 19:33:48 467.674
COMPASS 1 31 Jul 19:46:37 19:47:54 11° 68° (ENE) 19:49:26 437.405
Cubesat XI-IV 31 Jul 19:46:41 19:49:26 13° 270° (W) 19:51:51 437.490
ISS 31 Jul 19:55:50 19:58:12 19° 129° (SE) 20:00:38 145.825
VERMONT LUNAR 31 Jul 19:58:22 20:01:12 28° 351° (N) 20:04:02 437.305
SEEDS 31 Jul 19:58:51 20:02:01 21° 71° (ENE) 20:05:18 437.485
CUTE 1.7 + AOD 2 31 Jul 20:00:28 20:04:05 28° 72° (ENE) 20:07:47 437.475
PHONESAT 2.4 31 Jul 20:03:23 20:06:53 72° 154° (SSE) 20:10:23 2401.200-2431.200
CANX-2 31 Jul 20:08:23 20:12:21 39° 74° (ENE) 20:16:22 2200.000
Cosmos 2499 31 Jul 20:08:51 20:17:08 46° 270° (W) 20:25:19 435.465 / 435.565
PCSat 31 Jul 20:21:12 20:24:31 16° 254° (WSW) 20:27:34 145.827
PRISM 31 Jul 20:25:56 20:29:43 36° 287° (WNW) 20:33:27 437.425
AAUSAT CUBESAT 2 31 Jul 20:25:59 20:29:34 29° 73° (ENE) 20:33:14 437.432
RS-15 31 Jul 20:39:45 20:49:40 45° 109° (ESE) 21:00:01 29.354- 29.394
BRITE-PL 31 Jul 20:52:34 20:55:38 17° 266° (W) 20:58:25 437.365/2234.400
DOVE 4 31 Jul 20:54:45 20:58:48 47° 261° (W) 21:02:48 437.250
HO-68 31 Jul 20:57:30 21:04:35 64° 258° (WSW) 21:11:41 435.675
ZACube-1 31 Jul 21:03:58 21:06:58 20° 71° (ENE) 21:10:08 437.345
STRAND 1 31 Jul 21:04:56 21:08:20 18° 293° (WNW) 21:11:32 437.568
GOMX 1 31 Jul 21:05:12 21:08:31 21° 265° (W) 21:11:38 467.674
CINEMA 3 31 Jul 21:06:56 21:11:04 88° 258° (WSW) 21:15:16 145.822/145.860
COMPASS 1 31 Jul 21:19:05 21:23:10 49° 261° (W) 21:27:17 437.405
M-CUBED/EXP-1 PRIME 31 Jul 21:22:13 21:25:06 16° 96° (E) 21:28:09 437.505
FUNcube-1 31 Jul 21:25:01 21:28:46 34° 73° (ENE) 21:32:38 145.935
UWE-3 31 Jul 21:25:49 21:29:49 49° 75° (ENE) 21:33:57 435.000/436.395/437.385
ISS 31 Jul 21:31:34 21:34:29 30° 323° (NW) 21:37:26 145.825
SEEDS 31 Jul 21:34:06 21:37:41 26° 265° (W) 21:41:13 437.485
VERMONT LUNAR 31 Jul 21:35:40 21:38:26 27° 7° (N) 21:41:12 437.305
CUTE 1.7 + AOD 2 31 Jul 21:36:51 21:40:01 19° 267° (W) 21:43:04 437.475
Oscar 11 31 Jul 21:37:58 21:42:18 88° 256° (WSW) 21:46:40 145.826/435.025
CUBEBUG 2 31 Jul 21:40:24 21:44:33 81° 258° (WSW) 21:48:48 437.445
UKube-1 31 Jul 21:41:33 21:43:45 14° 68° (ENE) 21:46:09 .
PHONESAT 2.4 31 Jul 21:41:48 21:45:02 33° 349° (NNW) 21:48:16 2401.200-2431.200
CANX-2 31 Jul 21:46:11 21:48:29 14° 269° (W) 21:50:36 2200.000
50 SAT 31 Jul 21:49:21 21:49:47 10° 68° (ENE) 21:50:26 437.505
DELFI C3 31 Jul 21:49:32 21:53:35 85° 78° (ENE) 21:57:40 145.870
AUBIESAT-1 31 Jul 21:51:03 21:55:07 29° 100° (E) 21:59:08 437.475
HUMSAT D 31 Jul 21:53:18 21:56:51 29° 73° (ENE) 22:00:31 437.325/437.525
AAUSAT CUBESAT 2 31 Jul 22:02:12 22:05:13 18° 267° (W) 22:08:05 437.432
DX 1 31 Jul 22:07:20 22:11:08 31° 72° (ENE) 22:15:00 434.975-435.025
UNISAT 6 31 Jul 22:11:40 22:14:14 15° 91° (E) 22:17:02 437.425
Cosmos 2491 31 Jul 22:14:34 22:20:12 19° 66° (ENE) 22:26:18 435.465 / 435.565
AIST 1 31 Jul 22:17:25 22:18:03 10° 70° (ENE) 22:18:59
VELOX 1 31 Jul 22:20:36 22:24:10 25° 71° (ENE) 22:27:49 145.980
ESTCUBE 1 31 Jul 22:30:55 22:34:25 23° 71° (ENE) 22:38:02 437.505/2401.250
ZACube-1 31 Jul 22:39:38 22:43:11 26° 265° (W) 22:46:45 437.345
RS-15 31 Jul 22:51:36 23:02:02 47° 310° (NW) 23:12:43 29.354- 29.394
TIGRISAT 31 Jul 22:53:37 22:58:05 43° 98° (E) 23:02:35 435.000
ANTELSAT 31 Jul 22:55:13 22:59:45 47° 99° (E) 23:04:19 437.575/2403.000
M-CUBED/EXP-1 PRIME 31 Jul 22:55:31 23:00:07 45° 291° (WNW) 23:04:32 437.505
BEESAT 3 31 Jul 22:58:23 23:02:07 38° 114° (ESE) 23:05:57 437.485
DUCHIFAT 1 31 Jul 23:00:46 23:03:27 17° 93° (E) 23:06:17 145.980
FUNcube-1 31 Jul 23:02:45 23:05:17 15° 269° (W) 23:07:38 145.935
QB50P1 31 Jul 23:03:31 23:06:31 19° 94° (E) 23:09:40 145.935-145.965
NANOSAT C BR1 31 Jul 23:04:51 23:07:53 19° 94° (E) 23:11:03 145.865
UWE-3 31 Jul 23:06:06 23:06:45 10° 271° (W) 23:07:07 435.000/436.395/437.385
VERMONT LUNAR 31 Jul 23:12:17 23:15:27 77° 22° (NNE) 23:18:36 437.305
UKube-1 31 Jul 23:15:28 23:19:34 41° 261° (W) 23:23:39 .
AISAT 31 Jul 23:16:57 23:21:20 66° 259° (W) 23:25:43 437.250
50 SAT 31 Jul 23:20:14 23:23:57 46° 261° (W) 23:27:44 437.505
PHONESAT 2.4 31 Jul 23:20:25 23:23:32 29° 6° (N) 23:26:38 2401.200-2431.200
AUBIESAT-1 31 Jul 23:25:46 23:29:41 25° 294° (WNW) 23:33:25 437.475
HUMSAT D 31 Jul 23:29:50 23:32:40 17° 267° (W) 23:35:23 437.325/437.525
CUBEBUG 1 31 Jul 23:32:03 23:36:26 84° 258° (WSW) 23:40:48 437.445
DX 1 31 Jul 23:44:24 23:47:27 18° 266° (W) 23:50:22 434.975-435.025
POLYITAN 1 31 Jul 23:45:29 23:49:45 65° 101° (E) 23:54:01 437.675
UNISAT 6 31 Jul 23:46:46 23:51:15 45° 286° (WNW) 23:55:43 437.425
AIST 2 31 Jul 23:49:27 23:52:41 22° 112° (ESE) 23:56:02 435.215
AIST 1 31 Jul 23:51:59 23:56:05 48° 267° (W) 00:00:10
BEESAT 2 31 Jul 23:55:35 23:59:36 57° 301° (WNW) 00:03:40 435.950
VELOX 1 31 Jul 23:57:04 00:00:40 23° 265° (W) 00:04:09 145.980
POPSAT HIP 1 01 Aug 00:02:40 00:06:57 78° 282° (WNW) 00:11:13 437.405
ESTCUBE 1 01 Aug 00:07:17 00:11:11 27° 264° (W) 00:15:01 437.505/2401.250
BUGSAT 1 01 Aug 00:08:18 00:12:22 72° 101° (E) 00:16:29 437.445
SPROUT 01 Aug 00:09:12 00:13:26 71° 76° (ENE) 00:17:42 437.525
Cosmos 2491 01 Aug 00:09:24 00:18:06 75° 266° (W) 00:26:46 435.465 / 435.565
QB50P2 01 Aug 00:10:20 00:14:32 60° 284° (WNW) 00:18:44 145.880/145.840
TISAT 1 01 Aug 00:22:09 00:26:15 59° 76° (ENE) 00:30:23 437.305
YUBILEINY 01 Aug 00:25:30 00:34:06 73° 94° (E) 00:42:50 435.215
TIGRISAT 01 Aug 00:31:31 00:34:30 16° 291° (WNW) 00:37:18 435.000
ANTELSAT 01 Aug 00:33:24 00:36:11 15° 292° (WNW) 00:38:45 437.575/2403.000
DUCHIFAT 1 01 Aug 00:35:32 00:39:20 32° 287° (WNW) 00:43:06 145.980
BEESAT 3 01 Aug 00:37:32 00:40:15 17° 310° (NW) 00:42:51 437.485
QB50P1 01 Aug 00:38:44 00:42:25 28° 288° (WNW) 00:46:02 145.935-145.965
NANOSAT C BR1 01 Aug 00:40:05 00:43:44 28° 288° (WNW) 00:47:20 145.865
VERMONT LUNAR 01 Aug 00:49:56 00:51:55 15° 216° (SW) 00:53:50 437.305
BEESAT 01 Aug 00:52:36 00:56:04 21° 69° (ENE) 00:59:42 436.000
O/OREOS (USA 219) 01 Aug 00:55:00 00:58:54 31° 104° (ESE) 01:02:53 437.305
PHONESAT 2.4 01 Aug 00:58:20 01:01:50 71° 22° (NNE) 01:05:18 2401.200-2431.200
SWISSCUBE 01 Aug 01:12:08 01:16:30 37° 72° (ENE) 01:20:55 437.505
RS-15 01 Aug 01:12:41 01:18:33 15° 340° (NNW) 01:24:06 29.354- 29.394
Oscar 19 01 Aug 01:14:47 01:18:32 21° 93° (E) 01:22:27 437.125/150
AIST 2 01 Aug 01:27:24 01:31:07 28° 306° (NW) 01:34:49 435.215
ITUPSAT 1 01 Aug 01:32:39 01:37:20 55° 74° (ENE) 01:42:04 437.325
KKS-1 01 Aug 01:49:39 01:51:09 12° 67° (ENE) 01:52:54 437.445
Cosmos 2491 01 Aug 02:12:05 02:13:46 10° 281° (W) 02:14:35 435.465 / 435.565
Gurwin Techsat 1B 01 Aug 02:12:14 02:16:13 22° 94° (E) 02:20:21 435.225
YUBILEINY 01 Aug 02:25:38 02:31:55 20° 293° (WNW) 02:37:47 435.215
Cosmos 2504 01 Aug 02:26:32 02:33:13 50° 90° (E) 02:40:23 435.465 / 435.565
BEESAT 01 Aug 02:29:21 02:33:43 34° 263° (W) 02:38:03 436.000
ITAMSAT 1 01 Aug 02:34:49 02:39:23 32° 97° (E) 02:44:00 435.822/435.867
O/OREOS (USA 219) 01 Aug 02:35:03 02:38:24 20° 300° (WNW) 02:41:39 437.305
PHONESAT 2.4 01 Aug 02:36:55 02:39:34 20° 216° (SW) 02:42:09 2401.200-2431.200
SWISSCUBE 01 Aug 02:51:03 02:54:29 19° 267° (W) 02:57:46 437.505
Oscar 19 01 Aug 02:53:14 02:58:02 39° 288° (WNW) 03:02:47 437.125/150
STARS 01 Aug 02:56:44 03:00:48 41° 73° (ENE) 03:04:55 437.465
JAS-2 01 Aug 03:04:19 03:11:13 34° 94° (E) 03:18:03 435.910
AO-7 01 Aug 03:11:18 03:15:27 15° 90° (E) 03:20:12 29.400- 29.500
ITUPSAT 1 01 Aug 03:13:31 03:15:38 12° 270° (W) 03:17:27 437.325
JUGNU 01 Aug 03:13:55 03:17:17 16° 170° (S) 03:20:42 437.505
KKS-1 01 Aug 03:23:03 03:27:22 53° 260° (W) 03:31:42 437.445
RS-15 01 Aug 03:33:04 03:38:05 14° 17° (NNE) 03:43:37 29.354- 29.394
Gurwin Techsat 1B 01 Aug 03:51:27 03:56:20 38° 288° (WNW) 04:01:10 435.225
CUSAT 1 01 Aug 03:56:09 03:58:56 31° 98° (E) 04:01:25 437.405
ISS 01 Aug 04:01:44 04:04:54 48° 39° (NE) 04:08:04 145.825
MOZHAYETS 4 01 Aug 04:12:48 04:17:18 54° 75° (ENE) 04:21:51
ITAMSAT 1 01 Aug 04:14:31 04:18:46 25° 291° (WNW) 04:22:53 435.822/435.867
Cosmos 2504 01 Aug 04:20:08 04:25:51 24° 290° (WNW) 04:31:37 435.465 / 435.565
HORYU 2 01 Aug 04:24:01 04:28:28 56° 101° (E) 04:32:53 437.375
STARS 01 Aug 04:35:06 04:37:28 14° 268° (W) 04:39:38 437.465
JAS-2 01 Aug 04:48:53 04:56:20 46° 290° (WNW) 05:03:31 435.910
AO-7 01 Aug 05:00:59 05:09:21 88° 288° (WNW) 05:17:40 29.400- 29.500
JUGNU 01 Aug 05:01:27 05:05:39 20° 179° (S) 05:09:49 437.505
SRMSAT 01 Aug 05:05:36 05:08:58 16° 170° (S) 05:12:23 437.500
GONETS M04 01 Aug 05:08:44 05:15:43 29° 86° (E) 05:22:57
DANDE 01 Aug 05:18:28 05:21:10 20° 280° (W) 05:23:26 436.750
ISS 01 Aug 05:39:45 05:41:03 12° 232° (SW) 05:42:14 145.825
CUTE-I 01 Aug 05:43:42 05:45:11 11° 89° (E) 05:47:03 437.470
RS-15 01 Aug 05:44:26 05:55:14 41° 48° (NE) 06:06:36 29.354- 29.394
MOZHAYETS 4 01 Aug 05:53:04 05:54:55 12° 270° (W) 05:56:27
HORYU 2 01 Aug 06:02:54 06:04:39 12° 293° (WNW) 06:06:09 437.375
CUBESAT XI-V 01 Aug 06:06:39 06:11:20 74° 77° (ENE) 06:16:01 437.345
Cubesat XI-IV 01 Aug 06:25:03 06:29:47 33° 97° (E) 06:34:34 437.490
STRAND 1 01 Aug 06:36:42 06:41:34 46° 73° (ENE) 06:46:30 437.568
Cosmos 2499 01 Aug 06:49:20 06:55:06 27° 86° (E) 07:01:26 435.465 / 435.565
JUGNU 01 Aug 06:50:23 06:54:00 17° 189° (S) 06:57:35 437.505
SRMSAT 01 Aug 06:53:18 06:57:29 20° 179° (S) 07:01:38 437.500
AO-7 01 Aug 06:56:04 07:01:11 17° 303° (WNW) 07:05:49 29.400- 29.500
GONETS M04 01 Aug 07:03:47 07:12:12 51° 282° (WNW) 07:20:35
PRISM 01 Aug 07:11:31 07:15:43 88° 257° (WSW) 07:19:55 437.425
CUTE-I 01 Aug 07:20:33 07:25:51 69° 286° (WNW) 07:31:07 437.470
BRITE-PL 01 Aug 07:21:50 07:24:00 14° 93° (E) 07:26:31 437.365/2234.400
GOMX 1 01 Aug 07:33:50 07:34:29 10° 91° (E) 07:35:30 467.674
PCSat 01 Aug 07:34:54 07:36:19 11° 104° (ESE) 07:38:09 145.827
RS-15 01 Aug 07:56:41 08:08:16 58° 248° (WSW) 08:20:02 29.354- 29.394
Cubesat XI-IV 01 Aug 08:05:22 08:09:46 26° 291° (WNW) 08:14:01 437.490
M-CUBED/EXP-1 PRIME 01 Aug 08:08:36 08:09:23 11° 60° (ENE) 08:10:25 437.505
STRAND 1 01 Aug 08:17:38 08:21:03 17° 268° (W) 08:24:15 437.568
BEESAT 2 01 Aug 08:18:25 08:21:50 26° 54° (NE) 08:25:15 435.950
HO-68 01 Aug 08:29:48 08:35:55 31° 96° (E) 08:42:10 435.675
AUBIESAT-1 01 Aug 08:35:36 08:38:26 19° 64° (ENE) 08:41:33 437.475
Cosmos 2499 01 Aug 08:40:52 08:47:52 47° 283° (WNW) 08:55:21 435.465 / 435.565
SRMSAT 01 Aug 08:42:23 08:45:59 16° 189° (S) 08:49:32 437.500
DOVE 4 01 Aug 08:56:15 09:00:51 57° 100° (E) 09:05:45 437.250
BEESAT 3 01 Aug 08:57:40 09:01:42 82° 242° (WSW) 09:05:39 437.485
BRITE-PL 01 Aug 08:58:29 09:02:44 45° 285° (WNW) 09:07:16 437.365/2234.400
CINEMA 3 01 Aug 09:05:04 09:09:13 30° 96° (E) 09:13:34 145.822/145.860
COMPASS 1 01 Aug 09:06:17 09:10:05 33° 97° (E) 09:13:54 437.405
GOMX 1 01 Aug 09:08:26 09:12:58 62° 284° (WNW) 09:17:49 467.674
PCSat 01 Aug 09:13:48 09:19:12 74° 297° (WNW) 09:24:38 145.827
SO-50 01 Aug 09:15:11 09:19:54 87° 303° (WNW) 09:24:47 436.795
UWE-3 01 Aug 09:20:24 09:22:57 15° 91° (E) 09:25:43 435.000/436.395/437.385
SEEDS 01 Aug 09:21:15 09:25:30 68° 101° (E) 09:29:42 437.485
CUTE 1.7 + AOD 2 01 Aug 09:24:20 09:28:39 86° 283° (WNW) 09:32:56 437.475
Oscar 11 01 Aug 09:29:45 09:33:06 22° 94° (E) 09:36:33 145.826/435.025
CANX-2 01 Aug 09:32:49 09:37:04 60° 284° (WNW) 09:41:17 2200.000
DELFI C3 01 Aug 09:33:39 09:35:52 15° 92° (E) 09:38:16 145.870
CUBEBUG 2 01 Aug 09:35:04 09:39:06 29° 96° (E) 09:43:15 437.445
M-CUBED/EXP-1 PRIME 01 Aug 09:39:43 09:43:35 58° 256° (WSW) 09:47:49 437.505
AAUSAT CUBESAT 2 01 Aug 09:47:15 09:51:29 89° 289° (WNW) 09:55:39 437.432
TIGRISAT 01 Aug 09:49:28 09:52:50 23° 71° (ENE) 09:56:22 435.000
ANTELSAT 01 Aug 09:51:10 09:54:41 25° 71° (ENE) 09:58:22 437.575/2403.000
AIST 2 01 Aug 09:51:55 09:56:02 59° 59° (ENE) 10:00:05 435.215
BEESAT 2 01 Aug 09:56:36 09:59:46 21° 248° (WSW) 10:02:47 435.950
AUBIESAT-1 01 Aug 10:09:25 10:12:56 30° 260° (W) 10:16:40 437.475
HO-68 01 Aug 10:17:03 10:23:46 44° 291° (WNW) 10:30:26 435.675
ZACube-1 01 Aug 10:30:45 10:35:19 74° 102° (ESE) 10:39:55 437.345
POLYITAN 1 01 Aug 10:35:08 10:38:46 29° 72° (ENE) 10:42:27 437.675
DOVE 4 01 Aug 10:36:04 10:38:17 13° 291° (WNW) 10:40:16 437.250
YUBILEINY 01 Aug 10:41:02 10:48:20 30° 71° (ENE) 10:55:55 435.215
UNISAT 6 01 Aug 10:41:45 10:46:04 79° 258° (WSW) 10:50:30 437.425
CINEMA 3 01 Aug 10:42:29 10:46:16 24° 289° (WNW) 10:50:04 145.822/145.860
COMPASS 1 01 Aug 10:42:45 10:45:31 17° 290° (WNW) 10:48:07 437.405
POPSAT HIP 1 01 Aug 10:51:42 10:55:41 45° 74° (ENE) 10:59:43 437.405
FUNcube-1 01 Aug 10:52:23 10:56:55 64° 283° (WNW) 11:01:27 145.935
BUGSAT 1 01 Aug 10:55:04 10:58:33 29° 73° (ENE) 11:02:04 437.445
UWE-3 01 Aug 10:55:18 10:59:41 44° 286° (WNW) 11:04:06 435.000/436.395/437.385
QB50P2 01 Aug 10:59:16 11:03:24 60° 75° (ENE) 11:07:33 145.880/145.840
50 SAT 01 Aug 10:59:33 11:02:47 24° 95° (E) 11:06:04 437.505
SO-50 01 Aug 10:59:46 11:01:16 11° 318° (NW) 11:02:31 436.795
Oscar 11 01 Aug 11:05:36 11:09:15 26° 288° (WNW) 11:12:48 145.826/435.025
UKube-1 01 Aug 11:06:27 11:10:31 40° 99° (E) 11:14:35 .
DELFI C3 01 Aug 11:07:25 11:11:04 32° 287° (WNW) 11:14:40 145.870
O/OREOS (USA 219) 01 Aug 11:08:17 11:12:26 33° 65° (ENE) 11:16:37 437.305
Cosmos 2491 01 Aug 11:11:14 11:17:49 26° 85° (E) 11:24:43 435.465 / 435.565
AISAT 01 Aug 11:11:32 11:15:25 30° 97° (E) 11:19:21 437.250
CUBEBUG 2 01 Aug 11:11:54 11:15:39 24° 289° (WNW) 11:19:20 437.445
HUMSAT D 01 Aug 11:15:41 11:20:02 84° 283° (WNW) 11:24:22 437.325/437.525
DUCHIFAT 1 01 Aug 11:23:30 11:27:40 72° 258° (WSW) 11:31:51 145.980
CUBEBUG 1 01 Aug 11:25:13 11:28:39 23° 95° (E) 11:32:08 437.445
TIGRISAT 01 Aug 11:25:56 11:29:30 24° 265° (W) 11:33:04 435.000
QB50P1 01 Aug 11:27:01 11:31:10 62° 259° (W) 11:35:19 145.935-145.965
ANTELSAT 01 Aug 11:28:00 11:31:27 22° 266° (W) 11:34:53 437.575/2403.000
NANOSAT C BR1 01 Aug 11:28:08 11:32:16 61° 259° (W) 11:36:25 145.865
DX 1 01 Aug 11:34:45 11:39:06 80° 284° (WNW) 11:43:25 434.975-435.025
VELOX 1 01 Aug 11:50:05 11:54:30 86° 102° (ESE) 11:58:55 145.980
SPROUT 01 Aug 12:00:44 12:03:21 16° 93° (E) 12:06:10 437.525
ESTCUBE 1 01 Aug 12:02:51 12:07:21 83° 102° (ESE) 12:11:50 437.505/2401.250
POLYITAN 1 01 Aug 12:11:47 12:14:43 18° 267° (W) 12:17:31 437.675
TISAT 1 01 Aug 12:12:09 12:13:49 12° 91° (E) 12:15:43 437.305
AIST 1 01 Aug 12:17:01 12:21:22 70° 278° (W) 12:25:42
Cosmos 2504 01 Aug 12:19:04 12:22:26 13° 63° (ENE) 12:26:33 435.465 / 435.565
Oscar 19 01 Aug 12:28:22 12:32:03 21° 69° (ENE) 12:35:54 437.125/150
POPSAT HIP 1 01 Aug 12:30:25 12:31:52 11° 269° (W) 12:33:02 437.405
BUGSAT 1 01 Aug 12:31:21 12:34:04 17° 266° (W) 12:36:38 437.445
50 SAT 01 Aug 12:34:16 12:37:13 20° 289° (WNW) 12:40:03 437.505
YUBILEINY 01 Aug 12:37:05 12:45:35 52° 269° (W) 12:53:58 435.215
UKube-1 01 Aug 12:43:52 12:46:20 15° 292° (WNW) 12:48:36 .
O/OREOS (USA 219) 01 Aug 12:48:23 12:51:39 19° 258° (WSW) 12:54:44 437.305
AISAT 01 Aug 12:48:34 12:51:49 20° 290° (WNW) 12:54:57 437.250
CUBEBUG 1 01 Aug 13:01:24 13:04:57 24° 288° (WNW) 13:08:24 437.445
Cosmos 2491 01 Aug 13:05:33 13:14:11 58° 281° (W) 13:22:45 435.465 / 435.565
SWISSCUBE 01 Aug 13:18:04 13:19:55 12° 90° (E) 13:22:05 437.505
Gurwin Techsat 1B 01 Aug 13:29:47 13:33:58 25° 69° (ENE) 13:38:18 435.225
SPROUT 01 Aug 13:35:39 13:39:33 34° 287° (WNW) 13:43:25 437.525
ITUPSAT 1 01 Aug 13:38:00 13:41:19 19° 93° (E) 13:44:47 437.325
TISAT 1 01 Aug 13:45:49 13:49:50 42° 286° (WNW) 13:53:49 437.305
